www.pogodaiklimat.ru

Погода и климат >> Архив погоды >> Дания >> Ольборг


ПОГОДА в Ольборге

  • Прогноз погоды в Ольборге
  • Монитор погоды в Ольборге

АРХИВ ПОГОДЫ в Ольборге

Время (UTC), дата Ветер
(напр.,м/с)
 
Видим.   Явления Облачность Т
(С)
Тd
(С)
f
(%)
Тe
(С)
Тes
(С)
Комфортность P
(гПа)
Po
(гПа)
Тmin
(С)
Tmax
(С)
R
(мм)
R24
(мм)
S
(см)
16 11.09 ЮЗ 9 н/о н/о +14.9 +14.4 97 +12 +12 1008.3 1006.8 0.2
17 11.09 ЮЗ 8 н/о н/о +15.4 +14.5 94 +13 +13 1009.0 1007.5 0.6
18 11.09 ЮЗ 7
{15}
н/о н/о +15.0 +14.0 94 +13 +13 1009.6 1008.1 +12.1 +16.1 0.8
19 11.09 З 6 н/о н/о +14.4 +13.3 93 +12 +12 1010.8 1009.3 0.2
20 11.09 З 6 н/о н/о +13.9 +12.8 93 +12 +12 1011.7 1010.2
21 11.09 З 7 н/о н/о +13.7 +12.5 92 +11 +11 1012.4 1010.9 0.2
22 11.09 З 6 н/о н/о +13.3 +11.9 91 +11 +11 1013.0 1011.5
23 11.09 З 7 н/о н/о +13.3 +11.9 91 +11 +11 1013.9 1012.4
00 12.09 З 6 н/о н/о +13.0 +11.4 90 +11 +11 1014.5 1013.0
01 12.09 ЮЗ 4 н/о н/о +12.2 +11.2 94 +10 +10 1015.1 1013.6
02 12.09 ЮЗ 5 н/о н/о +11.9 +11.1 95 +9 +9 1015.6 1014.1
03 12.09 ЮЗ 5 н/о н/о +12.2 +11.5 95 +10 +10 1015.8 1014.3
04 12.09 ЮЗ 5 н/о н/о +11.9 +11.3 96 +9 +9 1016.2 1014.7
05 12.09 ЮЗ 4 н/о н/о +11.9 +11.4 97 +10 +10 1016.8 1015.3
06 12.09 ЮЗ 5 н/о н/о +12.9 +12.2 96 +11 +11 1017.3 1015.8 +11.5 +15.2
07 12.09 ЮЗ 7 н/о н/о +14.1 +13.0 93 +12 +12 1017.9 1016.4
08 12.09 ЮЗ 7 н/о н/о +15.1 +13.6 91 +13 +13 1018.3 1016.8
09 12.09 З 7 н/о н/о +15.8 +13.5 86 +14 +14 1019.1 1017.5
10 12.09 З 7 н/о н/о +16.3 +13.1 81 +15 +15 1019.2 1017.6
11 12.09 З 10 н/о н/о +17.2 +12.7 75 +16 +16 1019.2 1017.6
12 12.09 З 10 н/о н/о +17.5 +12.0 70 +16 +16 1019.5 1017.9
13 12.09 З 10 н/о н/о +16.7 +12.0 74 +15 +15 1019.5 1018.0
14 12.09 З 9 н/о н/о +16.5 +12.4 77 +15 +15 1019.4 1017.9
15 12.09 З 8 н/о н/о +16.5 +12.1 75 +15 +15 1019.5 1018.0
16 12.09 З 10 н/о н/о +16.2 +11.3 73 +14 +14 1019.3 1017.8
17 12.09 З 9 н/о н/о +15.7 +11.9 78 +14 +14 1019.1 1017.6
18 12.09 З 7 н/о н/о +15.2 +11.8 80 +13 +13 1019.5 1018.0 +12.6 +17.9
19 12.09 З 5 н/о н/о +14.6 +12.7 88 +13 +13 1019.5 1018.0
20 12.09 З 5 н/о н/о +13.3 +12.3 94 +11 +11 1019.5 1018.0 0.5
21 12.09 З 6 н/о н/о +13.5 +12.3 92 +11 +11 1019.1 1017.6 0.5
22 12.09 З 7 н/о н/о +13.4 +12.6 95 +11 +11 1018.9 1017.4
23 12.09 З 6 н/о н/о +13.4 +12.4 94 +11 +11 1018.5 1017.0
00 13.09 З 6 н/о н/о +13.3 +12.4 94 +11 +11 1018.5 1017.0 0.1
01 13.09 З 5 н/о н/о +13.3 +12.4 94 +11 +11 1018.4 1016.9
02 13.09 З 4 н/о н/о +12.6 +11.7 94 +11 +11 1018.6 1017.1
03 13.09 З 4 н/о н/о +11.8 +10.5 92 +10 +10 1018.9 1017.4
04 13.09 З 5 н/о н/о +12.3 +10.0 86 +10 +10 1019.7 1018.1
05 13.09 З 5 н/о н/о +12.5 +9.6 82 +10 +10 1020.5 1018.9
06 13.09 З 7 н/о н/о +13.4 +9.3 76 +11 +11 1021.3 1019.7 +11.7 +15.3
07 13.09 З 8 н/о н/о +14.2 +8.4 68 +12 +12 1022.2 1020.6
08 13.09 СЗ 7 н/о н/о +14.0 +9.5 74 +12 +12 1023.0 1021.4
09 13.09 СЗ 8-14
{14}
н/о н/о +15.5 +9.6 68 +14 +14 1024.2 1022.6
10 13.09 СЗ 7 н/о н/о +15.3 +10.3 72 +14 +14 1024.9 1023.3 0.6
11 13.09 З 10 н/о н/о +15.4 +9.1 66 +13 +13 1025.6 1024.0 0.2
12 13.09 З 7-14
{18}
н/о н/о +15.5 +10.5 72 +14 +14 1026.3 1024.7 0.8
13 13.09 З 9 н/о н/о +13.8 +10.6 81 +11 +11 1026.9 1025.3 0.1
14 13.09 З 9 н/о н/о +15.3 +9.0 66 +13 +13 1027.0 1025.4 0.2
15 13.09 З 11-17
{17}
н/о н/о +15.1 +7.8 62 +13 +13 1027.1 1025.5 0.3
16 13.09 З 8 н/о н/о +14.5 +8.4 67 +12 +12 1027.4 1025.8
17 13.09 З 9 н/о н/о +13.8 +8.2 69 +11 +11 1027.8 1026.2
18 13.09 З 6
{17}
н/о н/о +12.7 +8.3 75 +10 +10 1028.5 1026.9 +11.5 +16.1
19 13.09 З 6 н/о н/о +13.0 +9.1 77 +11 +11 1028.9 1027.3
20 13.09 З 5 н/о н/о +11.6 +10.1 91 +9 +9 1029.2 1027.6 0.5
21 13.09 З 7 н/о н/о +11.8 +9.7 87 +9 +9 1029.2 1027.6 0.5
22 13.09 З 7 н/о н/о +12.2 +8.2 77 +9 +9 1029.5 1027.9
23 13.09 З 6 н/о н/о +12.1 +8.4 78 +10 +10 1029.4 1027.8
00 14.09 З 5 н/о н/о +11.8 +9.2 84 +9 +9 1029.6 1028.0
01 14.09 З 4 н/о н/о +11.5 +9.4 87 +9 +9 1029.9 1028.3
02 14.09 З 5 н/о н/о +11.7 +9.6 87 +9 +9 1029.9 1028.3
03 14.09 З 4 н/о н/о +11.0 +8.8 86 +9 +9 1029.7 1028.1
04 14.09 З 5 н/о н/о +11.6 +8.8 83 +9 +9 1029.7 1028.1
05 14.09 З 5 н/о н/о +11.2 +9.2 87 +9 +9 1029.5 1027.9
06 14.09 З 5 н/о н/о +12.0 +9.6 85 +9 +9 1029.7 1028.1 +10.9 +13.0
07 14.09 З 4 н/о н/о +12.6 +10.6 88 +11 +11 1030.0 1028.4 0.1
08 14.09 З 5 н/о н/о +13.8 +10.5 80 +12 +12 1030.0 1028.4
09 14.09 З 7 н/о н/о +15.3 +9.9 70 +14 +14 1029.7 1028.1 0.1
10 14.09 З 9 н/о н/о +15.7 +10.8 73 +14 +14 1029.3 1027.7
11 14.09 ЮЗ 11 н/о н/о +16.9 +10.5 66 +15 +15 1028.9 1027.3
12 14.09 З 12 н/о н/о +17.2 +9.9 62 +16 +16 1028.2 1026.6
13 14.09 З 12 н/о н/о +16.9 +9.1 60 +15 +15 1027.6 1026.0
14 14.09 ЮЗ 11 н/о н/о +16.4 +8.9 61 +15 +15 1026.5 1025.0
15 14.09 З 10 н/о н/о +15.6 +9.7 68 +14 +14 1025.5 1024.0
16 14.09 ЮЗ 9 н/о н/о +15.5 +10.5 72 +13 +13 1024.0 1022.5
17 14.09 ЮЗ 9 н/о н/о +14.9 +10.3 74 +13 +13 1022.9 1021.4
18 14.09 ЮЗ 8 н/о н/о +14.2 +10.0 76 +12 +12 1022.4 1020.9 +11.8 +17.4
19 14.09 ЮЗ 8 н/о н/о +13.9 +10.1 78 +11 +11 1021.0 1019.5
20 14.09 ЮЗ 9 н/о н/о +13.9 +10.2 78 +11 +11 1019.6 1018.1
21 14.09 ЮЗ 11 н/о н/о +14.1 +10.5 79 +11 +11 1017.8 1016.3
22 14.09 ЮЗ 11 н/о н/о +14.3 +10.9 80 +11 +11 1016.6 1015.1
23 14.09 ЮЗ 12 н/о н/о +14.7 +11.2 80 +12 +12 1014.8 1013.3
00 15.09 ЮЗ 13
{19}
н/о н/о +14.8 +11.2 79 +12 +12 1012.7 1011.2 0.0
01 15.09 ЮЗ 13 н/о н/о +15.2 +11.5 79 +12 +12 1011.9 1010.4
02 15.09 ЮЗ 13 н/о н/о +15.2 +12.2 82 +12 +12 1010.9 1009.4
03 15.09 З 12
{20}
н/о н/о +14.0 +13.4 96 +11 +11 1009.6 1008.1 2
04 15.09 З 13 н/о н/о +14.1 +13.6 97 +11 +11 1009.1 1007.6 3
05 15.09 З 8 н/о н/о +12.6 +11.9 95 +9 +9 1009.0 1007.5 2
06 15.09 З 7
{20}
н/о н/о +12.3 +11.6 95 +9 +9 1008.9 1007.4 +12.1 +15.6 5
07 15.09 З 8 н/о н/о +12.9 +10.4 85 +10 +10 1009.0 1007.5
08 15.09 З 9 н/о н/о +14.0 +10.9 82 +11 +11 1009.1 1007.6
09 15.09 З 9
{19}
н/о н/о +14.2 +9.4 73 +12 +12 1009.3 1007.8
10 15.09 З 12 н/о н/о +14.5 +8.1 65 +12 +12 1009.2 1007.7
11 15.09 З 14 н/о н/о +14.2 +6.0 58 +11 +11 1009.4 1007.9
12 15.09 З 13-19
{20}
н/о н/о +12.9 +8.5 75 +9 +9 1009.7 1008.2 0.1
13 15.09 З 12 н/о н/о +13.7 +7.3 65 +10 +10 1009.6 1008.1
14 15.09 З 14 н/о н/о +13.5 +7.2 66 +10 +10 1009.5 1008.0
15 15.09 З 13-18
{22}
н/о н/о +13.0 +8.4 74 +9 +9 1009.5 1008.0 0.0
16 15.09 З 12 н/о н/о +12.8 +8.3 74 +9 +9 1009.4 1007.9 0.1
17 15.09 З 11 н/о н/о +13.1 +8.2 72 +10 +10 1009.1 1007.6
18 15.09 З 13-19
{22}
н/о н/о +12.8 +7.7 71 +9 +9 1009.1 1007.6 +12.3 +15.2 0.1
19 15.09 З 12 н/о н/о +12.7 +8.3 75 +9 +9 1009.3 1007.8
20 15.09 З 10 н/о н/о +13.0 +8.1 72 +10 +10 1009.9 1008.4
21 15.09 З 12-19
{20}
н/о н/о +12.8 +8.0 73 +9 +9 1010.4 1008.9 0.1
22 15.09 З 10 н/о н/о +12.7 +8.5 76 +9 +9 1011.2 1009.7
23 15.09 З 10 н/о н/о +12.7 +7.7 72 +9 +9 1011.2 1009.7
00 16.09 З 8
{20}
н/о н/о +12.7 +8.4 75 +10 +10 1011.9 1010.4
01 16.09 З 8 н/о н/о +12.0 +8.8 81 +9 +9 1012.0 1010.5
02 16.09 З 7 н/о н/о +11.6 +8.4 81 +9 +9 1012.4 1010.9 0.2
03 16.09 З 8
{16}
н/о н/о +11.4 +8.3 81 +8 +8 1012.3 1010.8 0.3
04 16.09 З 5 н/о н/о +10.9 +8.3 84 +8 +8 1012.3 1010.8 0.2
05 16.09 З 5 н/о н/о +10.9 +7.9 82 +8 +8 1012.4 1010.8 0.1
06 16.09 З 6
{16}
н/о н/о +10.9 +7.5 80 +8 +8 1012.5 1010.9 +10.6 +13.3 0.4
07 16.09 З 5 н/о н/о +11.4 +8.0 80 +9 +9 1012.8 1011.2 0.2
08 16.09 СЗ 9 н/о н/о +12.0 +7.5 74 +9 +9 1013.1 1011.5
09 16.09 З 9
{14}
н/о н/о +12.5 +7.1 70 +9 +9 1012.9 1011.3 0.2
10 16.09 З 11 н/о н/о +13.8 +5.7 58 +11 +11 1012.8 1011.2
11 16.09 З 11 н/о н/о +13.6 +6.0 60 +11 +11 1012.9 1011.3
12 16.09 СЗ 10-17
{18}
н/о н/о +14.2 +5.4 55 +12 +12 1013.1 1011.5
13 16.09 З 10 н/о н/о +13.9 +7.1 64 +11 +11 1012.8 1011.2
14 16.09 З 9 н/о н/о +13.5 +7.7 68 +11 +11 1012.4 1010.9
15 16.09 З 12
{16}
н/о н/о +13.2 +7.6 69 +10 +10 1011.6 1010.1
16 16.09 З 10 н/о н/о +12.7 +8.0 73 +9 +9 1011.8 1010.3
17 16.09 З 9 н/о н/о +11.9 +8.5 80 +8 +8 1011.7 1010.2
18 16.09 З 7
{17}
н/о н/о +11.6 +8.7 82 +9 +9 1011.6 1010.1 +10.8 +14.5
19 16.09 З 6 н/о н/о +11.5 +8.6 82 +9 +9 1011.5 1010.0
20 16.09 З 7 н/о н/о +10.9 +9.1 89 +7 +7 1011.2 1009.7
21 16.09 З 6 н/о н/о +10.3 +8.9 91 +7 +7 1010.5 1009.0 1
22 16.09 З 5 н/о н/о +10.6 +9.0 90 +8 +8 1010.0 1008.5 1
23 16.09 З 6 н/о н/о +10.6 +8.7 88 +7 +7 1009.3 1007.8 1
00 17.09 З 6
{12}
н/о н/о +10.4 +8.1 86 +7 +7 1008.9 1007.4 2
01 17.09 З 8 н/о н/о +9.3 +6.4 82 +5 +5 1008.5 1007.0 1
02 17.09 З 7 н/о н/о +9.6 +5.0 73 +6 +6 1008.0 1006.5
03 17.09 З 7
{14}
н/о н/о +8.7 +5.3 79 +4 +4 1007.5 1006.0 1
04 17.09 З 6 н/о н/о +9.3 +4.6 72 +6 +6 1007.0 1005.5
05 17.09 З 7 н/о н/о +9.6 +4.9 72 +6 +6 1006.8 1005.2
06 17.09 З 5
{14}
н/о н/о +9.0 +5.9 81 +6 +6 1006.4 1004.8 +7.4 +11.6 0.2
07 17.09 З 8 н/о н/о +10.0 +5.0 71 +6 +6 1005.4 1003.8 0.1
08 17.09 З 9 н/о н/о +10.9 +4.5 65 +7 +7 1005.5 1003.9
09 17.09 З 9-16
{16}
н/о н/о +11.2 +4.2 62 +8 +8 1005.3 1003.7 0.0
10 17.09 З 10 н/о н/о +11.8 +4.5 61 +8 +8 1005.2 1003.6
11 17.09 СЗ 9 н/о н/о +11.0 +3.7 61 +7 +7 1005.8 1004.2
12 17.09 СЗ 9-15
{16}
н/о н/о +12.4 +4.2 57 +9 +9 1006.5 1004.9
13 17.09 СЗ 9 н/о н/о +12.9 +3.5 53 +10 +10 1006.7 1005.1
14 17.09 СЗ 7 н/о н/о +10.8 +3.4 60 +8 +8 1007.6 1006.0
15 17.09 СЗ 5
{15}
н/о н/о +12.6 +2.8 51 +11 +11 1008.5 1006.9 0.2
16 17.09 СЗ 5 н/о н/о +12.6 +2.6 51 +11 +11 1009.4 1007.8
17 17.09 СЗ 4 н/о н/о +11.7 +3.1 56 +10 +10 1010.2 1008.6
18 17.09 СЗ 4
{15}
н/о н/о +10.2 +3.4 63 +8 +8 1010.9 1009.3 +8.9 +13.2
19 17.09 СЗ 3 н/о н/о +9.0 +3.1 67 +7 +7 1011.8 1010.2
20 17.09 СЗ 3 н/о н/о +10.6 +3.2 60 +9 +9 1012.7 1011.1
21 17.09 СЗ 2 н/о н/о +8.8 +2.3 64 +7 +7 1013.4 1011.8
22 17.09 СЗ 3 н/о н/о +9.2 +4.7 73 +7 +7 1013.9 1012.3
23 17.09 СЗ 4 н/о н/о +9.1 +4.7 74 +6 +6 1014.5 1012.9
00 18.09 СЗ 3 н/о н/о +8.4 +4.3 75 +6 +6 1014.9 1013.3
01 18.09 З 3 н/о н/о +8.1 +5.0 81 +6 +6 1015.2 1013.6
02 18.09 З 3 н/о н/о +8.0 +5.2 82 +6 +6 1015.4 1013.8
03 18.09 СЗ 3 н/о н/о +8.4 +5.2 80 +6 +6 1015.8 1014.2
04 18.09 СЗ 3 н/о н/о +7.4 +4.5 82 +5 +5 1016.1 1014.5
05 18.09 З 3 н/о н/о +6.6 +3.8 82 +4 +4 1016.4 1014.8
06 18.09 З 3 н/о н/о +8.6 +5.7 82 +6 +6 1017.1 1015.5 +6.4 +11.4
07 18.09 З 3 н/о н/о +11.0 +6.7 75 +9 +9 1017.5 1015.9
08 18.09 СЗ 4 н/о н/о +12.3 +6.0 65 +10 +10 1018.1 1016.5
09 18.09 СЗ 5 н/о н/о +12.7 +5.3 61 +11 +11 1018.5 1016.9
10 18.09 З 6 н/о н/о +13.0 +4.8 57 +11 +11 1018.7 1017.1
11 18.09 СЗ 5 н/о н/о +13.3 +4.7 56 +11 +11 1019.0 1017.4
12 18.09 З 6 н/о н/о +13.6 +4.9 56 +12 +12 1019.3 1017.7
13 18.09 СЗ 5 н/о н/о +13.5 +4.9 56 +12 +12 1019.5 1017.9
14 18.09 СЗ 5 н/о н/о +13.6 +4.8 55 +12 +12 1019.8 1018.2
15 18.09 СЗ 4 н/о н/о +13.1 +4.2 55 +12 +12 1020.1 1018.5
16 18.09 СЗ 4 н/о н/о +12.8 +3.5 53 +11 +11 1020.2 1018.6
17 18.09 СЗ 2 н/о н/о +10.8 +4.5 65 +10 +10 1020.4 1018.8

 

Местоположение метеостанции Ольборг (Дания): широта 57.10 долгота 9.85 высота над уровнем моря 13 м.

В архиве по умолчанию представлена погода в Ольборге за последнюю неделю. Архивные данные за месяц целиком и за предыдущие месяцы, начиная с января 2011 года, Вы можете получить, выбрав интересующий диапазон дат из раскрывающегося списка и нажав кнопку "Ввод!".


*Определитесь, кто Вы:
робот инопланетянин человек

Внимание! Время в таблицах - всемирное. Для получения местного времени необходимо прибавить поправку, которая равна 1 ч.

Смотрите также архив погоды в соседних городах и на ближайших метеорологических станциях:

Погода в Тылструпе (Дания) (11 км)
Погода в Стенхое (Дания) (42 км)
Погода в Алеструпе (Дания) (44 км)
Погода в Хальде V (Дания) (61 км)
Погода в Фоулуме (Дания) (69 км)
Погода в Скагене (Дания) (84 км)
Погода в Тирструпе (Дания) (99 км)
Погода в Карупе (Дания) (100 км)
Погода в Мейрупе (Дания) (108 км)
Погода в Тыбороене (Дания) (109 км)

Пояснения к столбцам:

Ветер - указаны скорость ветра в м/с - средняя за 10 мин, порывы в срок и между сроками (в фигурных скобках) и направление, откуда дует ветер: С - северный, СВ - северо-восточный, В - восточный, ЮВ - юго-восточный, Ю - южный, ЮЗ - юго-западный, З - западный, СЗ - северо-западный.
Видимость - горизонтальная дальность видимости в метрах или километрах. При видимости от 1 до 10 км при отсутствии осадков обычно наблюдается дымка, при ухудшении видимости до 1 км и менее - туман. В сухую погоду видимость может ухудшаться дымом, пылью или мглою.
Явления - указаны атмосферные явления, наблюдавшиеся в срок или в последний час перед сроком; фигурными скобками обозначены явления, наблюдавшиеся между сроками (за 1-3 часа до срока); квадратными скобками обозначены град или гололедные отложения с указанием их диаметра в мм.
Облачность - указаны через наклонную черту общая и нижняя облачность в баллах и высота нижней границы облаков в метрах; квадратными скобками обозначены формы облаков: Ci - перистые, Cs - перисто-слоистые, Cc - перисто-кучевые, Ac - высококучевые, As - высокослоистые, Sc - слоисто-кучевые, Ns - слоисто-дождевые, Cu - кучевые, Cb - кучево-дождевые. Подробнее классификацию облаков см. в Атласе облаков (PDF).
T - Температура воздуха - температура, измеренная на высоте 2 м над землей.
Td - Температура точки росы - температура, при понижении до которой содержащийся в воздухе водяной пар достигнет насыщения.
f - Относительная влажность воздуха - влажноcть воздуха, измеренная на высоте 2 м над землей.
Te - Эффективная температура - температура, которую ощущает одетый по сезону человек в тени. Характеристика душности погоды. При расчете учитывается влияние влажности воздуха и скорости ветра на теплоощущения человека.
Tes - Эффективная температура на солнце - температура, которую ощущает человек, с поправкой на солнечный нагрев. Характеристика знойности погоды. Зависит от высоты солнца над горизонтом, облачности и скорости ветра. Ночью, в пасмурную погоду, а также при ветре 12 м/с и более поправка равна нулю.
P - Атмосферное давление - приведенное к уровню моря атмосферное давление.
Po - Атмосферное давление - измеренное на уровне метеостанции атмосферное давление.
Tmin - Минимальная температура - минимум температуры воздуха на высоте 2 м над землей.
Tmax - Максимальная температура - максимум температуры воздуха на высоте 2 м над землей.
R - Количество осадков - Количество выпавших осадков за период времени, мм. При наведении курсора мыши на число - период времени, за который выпало указанное количество осадков.
R24 - Количество осадков - Количество выпавших осадков за 24 часа, мм.
S - Снежный покров - Высота снежного покрова, см. При наведении курсора мыши на число - состояние снежного покрова и степень покрытия местности в баллах.